KE9LZ-9 Weather Reports


Display with metric or nautical units.
time (UTC)temp
F
wind
direction
speed
MPH
gust
MPH
rain 1hr
in
rain 24hr
in
rain mn
in
humidity
%
barometer
mb
20260510094004 27 311 0.0 1.0 0.00 0.00 0.00 82 1014.8
20260510093004 28 270 1.0 2.0 0.00 0.00 0.00 79 1014.6
20260510092003 30 295 1.0 2.0 0.00 0.00 0.00 78 1014.7
20260510091003 29 289 1.0 2.0 0.00 0.00 0.00 78 1014.5
20260510085004 31 298 0.0 2.0 0.00 0.00 0.00 75 1014.4
20260510084003 32 308 1.0 3.0 0.00 0.00 0.00 73 1014.4
20260510083004 31 308 1.0 2.0 0.00 0.00 0.00 73 1014.2
20260510082004 31 296 1.0 2.0 0.00 0.00 0.00 75 1014.1
20260510080004 30 299 1.0 2.0 0.00 0.00 0.00 74 1014.0
20260510075003 31 335 1.0 2.0 0.00 0.00 0.00 72 1014.0
20260510074004 32 337 1.0 2.0 0.00 0.00 0.00 72 1013.7
20260510072004 31 340 1.0 2.0 0.00 0.00 0.00 71 1013.6
20260510071004 33 328 1.0 3.0 0.00 0.00 0.00 68 1013.4
20260510070004 32 277 1.0 3.0 0.00 0.00 0.00 70 1013.4
20260510065004 31 44 0.0 5.0 0.00 0.00 0.00 69 1013.5
20260510064004 30 357 1.0 2.0 0.00 0.00 0.00 74 1013.2
20260510063003 29 327 1.0 2.0 0.00 0.00 0.00 71 1013.3
20260510062004 29 291 0.0 2.0 0.00 0.00 0.00 71 1013.2
20260510060004 30 303 0.0 1.0 0.00 0.00 0.00 68 1012.9
20260510055004 30 312 1.0 2.0 0.00 0.00 0.00 68 1013.0
20260510054004 31 321 1.0 1.0 0.00 0.00 0.00 67 1012.9
20260510053004 30 327 0.0 2.0 0.00 0.00 0.00 67 1012.7
20260510052003 31 0 0.0 1.0 0.00 0.00 0.00 66 1012.7
20260510051005 31 16 0.0 2.0 0.00 0.00 0.00 65 1012.8
20260510050004 32 287 0.0 2.0 0.00 0.00 0.00 63 1012.7
20260510045004 32 310 0.0 1.0 0.00 0.00 0.00 62 1012.7
20260510043004 34 6 1.0 2.0 0.00 0.00 0.00 60 1012.7
20260510042005 34 334 0.0 1.0 0.00 0.00 0.00 58 1012.5
20260510041004 35 2 0.0 1.0 0.00 0.00 0.00 57 1012.4
20260510040004 36 340 0.0 1.0 0.00 0.00 0.00 55 1012.3
20260510035003 37 346 0.0 1.0 0.00 0.00 0.00 54 1012.4
20260510034003 38 317 0.0 2.0 0.00 0.00 0.00 52 1012.4
20260510032004 36 29 1.0 2.0 0.00 0.00 0.00 54 1012.0
20260510031004 36 16 1.0 2.0 0.00 0.00 0.00 56 1012.0
20260510030004 37 327 1.0 2.0 0.00 0.00 0.00 53 1012.0
20260510025004 38 348 0.0 2.0 0.00 0.00 0.00 52 1012.0
20260510024004 38 2 0.0 2.0 0.00 0.00 0.00 51 1011.6
20260510023004 39 44 0.0 1.0 0.00 0.00 0.00 49 1011.7
20260510022004 40 317 0.0 2.0 0.00 0.00 0.00 47 1011.7
20260510021004 41 336 0.0 1.0 0.00 0.00 0.00 46 1011.4
20260510020004 42 0 1.0 2.0 0.00 0.00 0.00 44 1011.5
20260510015004 43 28 1.0 2.0 0.00 0.00 0.00 43 1011.0
20260510014004 44 28 1.0 5.0 0.00 0.00 0.00 42 1011.1
20260510013006 46 3 1.0 7.0 0.00 0.00 0.00 40 1010.6
20260510012004 46 300 3.0 7.0 0.00 0.00 0.00 39 1010.7
20260510005004 48 51 2.0 16.0 0.00 0.00 0.00 38 1010.3
20260510004004 48 306 3.0 12.0 0.00 0.00 0.00 39 1009.9
20260510003004 48 331 7.0 16.0 0.00 0.00 0.00 38 1010.0
20260510002003 49 309 8.0 20.0 0.00 0.00 0.00 39 1009.6
20260510001004 50 352 6.0 17.0 0.00 0.00 0.00 38 1009.5
20260510000004 52 27 4.0 17.0 0.00 0.00 0.00 39 1009.5
20260509235004 51 339 4.0 10.0 0.00 0.00 0.00 40 1009.1
20260509233004 51 350 3.0 12.0 0.00 0.00 0.00 40 1008.4
20260509232004 51 3 4.0 10.0 0.00 0.00 0.00 38 1008.1
20260509231003 52 14 3.0 7.0 0.00 0.00 0.00 39 1008.0
20260509230003 52 356 2.0 12.0 0.00 0.00 0.00 38 1007.7
20260509225003 54 322 5.0 15.0 0.00 0.00 0.00 35 1007.6
20260509224005 56 317 5.0 10.0 0.00 0.00 0.00 33 1007.5
20260509223004 55 324 3.0 15.0 0.00 0.00 0.00 34 1007.1
20260509222004 55 322 4.0 22.0 0.00 0.00 0.00 33 1006.9
20260509221003 56 341 5.0 18.0 0.00 0.00 0.00 32 1006.9
20260509215004 57 13 4.0 21.0 0.00 0.00 0.00 32 1006.5
20260509213004 57 10 3.0 10.0 0.00 0.00 0.00 31 1005.9
20260509212004 57 348 6.0 17.0 0.00 0.00 0.00 30 1005.7
20260509211003 57 0 5.0 16.0 0.00 0.00 0.00 29 1005.5
20260509210004 59 319 6.0 13.0 0.00 0.00 0.00 29 1005.4
20260509203004 57 309 6.0 16.0 0.00 0.00 0.00 30 1005.0
20260509202004 58 325 6.0 25.0 0.00 0.00 0.00 30 1004.9
20260509201004 60 347 3.0 14.0 0.00 0.00 0.00 28 1004.5
20260509200004 58 353 5.0 23.0 0.00 0.00 0.00 29 1004.5
20260509195004 58 281 11.0 16.0 0.00 0.00 0.00 28 1003.9
20260509194003 57 323 6.0 15.0 0.00 0.00 0.00 30 1004.1
20260509193004 57 323 4.0 16.0 0.00 0.00 0.00 29 1003.7
20260509192004 57 291 7.0 21.0 0.00 0.00 0.00 30 1003.5
20260509191004 59 324 8.0 16.0 0.00 0.00 0.00 29 1003.5
20260509190004 56 354 7.0 17.0 0.00 0.00 0.00 31 1003.4
20260509185004 57 308 5.0 16.0 0.00 0.00 0.00 30 1003.2
20260509181004 58 327 3.0 13.0 0.00 0.00 0.00 32 1002.7
20260509180004 56 331 3.0 14.0 0.00 0.00 0.00 34 1002.9
20260509175003 59 355 2.0 18.0 0.00 0.00 0.00 31 1002.6
20260509174004 57 294 9.0 16.0 0.00 0.00 0.00 32 1002.8
20260509173003 57 282 3.0 15.0 0.00 0.00 0.00 32 1002.3
20260509172003 58 330 5.0 13.0 0.00 0.00 0.00 31 1002.1
20260509171004 57 299 3.0 17.0 0.00 0.00 0.00 32 1002.2
20260509165004 58 345 3.0 9.0 0.00 0.00 0.00 31 1001.8
20260509164004 55 337 5.0 12.0 0.00 0.00 0.00 34 1001.8
20260509163004 56 305 2.0 15.0 0.00 0.00 0.00 33 1001.8
20260509162003 55 341 5.0 16.0 0.00 0.00 0.00 34 1001.7
20260509161004 55 297 6.0 12.0 0.00 0.00 0.00 34 1001.5
20260509160003 55 355 2.0 17.0 0.00 0.00 0.00 35 1001.6
20260509155004 56 285 3.0 10.0 0.00 0.00 0.00 34 1001.3
20260509154004 56 274 7.0 21.0 0.00 0.00 0.00 33 1001.2
20260509153004 57 288 5.0 10.0 0.00 0.00 0.00 32 1000.9
20260509152004 57 303 4.0 17.0 0.00 0.00 0.00 31 1000.7
20260509151004 57 297 4.0 10.0 0.00 0.00 0.00 33 1000.5
20260509150004 56 323 4.0 14.0 0.00 0.00 0.00 34 1000.5
20260509145003 56 293 4.0 17.0 0.00 0.00 0.00 35 1000.8
20260509144004 55 288 3.0 13.0 0.00 0.00 0.00 36 1000.9
20260509143004 54 330 4.0 13.0 0.00 0.00 0.00 37 1000.6
20260509141003 53 348 2.0 14.0 0.00 0.00 0.00 40 1000.6
20260509140005 53 314 3.0 12.0 0.00 0.00 0.00 40 1000.4
20260509134004 54 295 2.0 7.0 0.00 0.00 0.00 41 1000.2
20260509133004 53 282 3.0 8.0 0.00 0.00 0.00 42 1000.2
20260509132003 53 287 3.0 7.0 0.00 0.00 0.00 42 1000.3
20260509131004 52 293 2.0 10.0 0.00 0.00 0.00 43 1000.3
20260509130004 52 277 4.0 7.0 0.00 0.00 0.00 43 1000.2
20260509125004 52 298 3.0 10.0 0.00 0.00 0.00 43 1000.4
20260509124005 52 291 3.0 9.0 0.00 0.00 0.00 44 1000.3
20260509123003 52 309 3.0 7.0 0.00 0.00 0.00 44 1000.0
20260509122004 52 349 3.0 13.0 0.00 0.00 0.00 44 1000.1
20260509121004 51 285 3.0 12.0 0.00 0.00 0.00 46 999.9
20260509120004 51 333 2.0 10.0 0.00 0.00 0.00 46 999.7
20260509115004 51 16 2.0 8.0 0.00 0.00 0.00 46 999.6
20260509114003 51 344 4.0 8.0 0.00 0.00 0.00 46 999.5
20260509113004 51 346 3.0 7.0 0.00 0.00 0.00 47 999.1
20260509112004 50 332 2.0 9.0 0.00 0.00 0.00 47 998.9
20260509111004 50 335 2.0 8.0 0.00 0.00 0.00 47 998.7
20260509110004 50 330 3.0 7.0 0.00 0.00 0.00 47 998.4
20260509105004 51 318 3.0 6.0 0.00 0.00 0.00 47 998.5
20260509104004 51 338 3.0 9.0 0.00 0.00 0.00 47 998.5
20260509102004 51 339 3.0 9.0 0.00 0.00 0.00 48 998.4
20260509101004 51 329 2.0 10.0 0.00 0.00 0.00 50 998.8